Location: Gajan
(43.0218°N, 1.1244°E)
Time: 15:07:37
(UTC+00:00)

CSL-04 Rocket - Pass Details

Date: 22 April 2021
Orbit: 806 x 860 km, 98.9° (Epoch: 13 May)

Event Time Altitude Azimuth Distance (km) Brightness Sun altitude
Rises 19:16:22 0° 169° (S) 3,317 6.5 -6.0°
Reaches altitude 10° 19:18:42 10° 171° (S) 2,385 5.7 -6.4°
Maximum altitude 19:23:58 75° 256° (WSW) 838 3.9 -7.2°
Drops below altitude 10° 19:29:16 10° 343° (NNW) 2,398 6.7 -8.1°
Sets 19:31:37 0° 345° (NNW) 3,336 7.5 -8.5°
